Time,TemperatureF,DewpointF,PressureIn,WindDirection,WindDirectionDegrees,WindSpeedMPH,WindSpeedGustMPH,Humidity,HourlyPrecipIn,Conditions,Clouds,dailyrainin,SoftwareType,DateUTC
2013-04-17 00:09:00,62.4,10.9,29.57,WSW,247,4.3,-999.0,13,-99.99,,,0.00,Acu-Link.com,2013-04-17 06:09:00,
2013-04-17 00:25:00,61.7,12.0,29.57,WNW,292,3.8,-999.0,14,-99.99,,,0.00,Acu-Link.com,2013-04-17 06:25:00,
2013-04-17 00:40:00,60.6,12.7,29.58,SSW,202,2.7,-999.0,15,-99.99,,,0.00,Acu-Link.com,2013-04-17 06:40:00,
2013-04-17 00:55:00,59.9,12.2,29.57,SSW,202,4.7,-999.0,15,-99.99,,,0.00,Acu-Link.com,2013-04-17 06:55:00,
2013-04-17 01:10:00,60.1,15.1,29.57,SSW,202,6.3,-999.0,17,-99.99,,,0.00,Acu-Link.com,2013-04-17 07:10:00,
2013-04-17 01:26:00,60.8,17.0,29.57,SSW,202,4.3,-999.0,18,-99.99,,,0.00,Acu-Link.com,2013-04-17 07:26:00,
2013-04-17 01:41:00,61.9,17.9,29.57,West,270,4.7,-999.0,18,-99.99,,,0.00,Acu-Link.com,2013-04-17 07:41:00,
2013-04-17 01:56:00,61.2,17.3,29.56,SW,225,4.3,-999.0,18,-99.99,,,0.00,Acu-Link.com,2013-04-17 07:56:00,
2013-04-17 02:11:00,60.3,17.9,29.57,West,270,6.3,-999.0,19,-99.99,,,0.00,Acu-Link.com,2013-04-17 08:11:00,
2013-04-17 02:26:00,61.0,19.6,29.57,NNE,22,6.7,-999.0,20,-99.99,,,0.00,Acu-Link.com,2013-04-17 08:26:00,
2013-04-17 02:42:00,60.8,19.5,29.57,South,180,7.4,-999.0,20,-99.99,,,0.00,Acu-Link.com,2013-04-17 08:42:00,
2013-04-17 02:57:00,60.6,19.3,29.57,SSW,202,6.7,-999.0,20,-99.99,,,0.00,Acu-Link.com,2013-04-17 08:57:00,
2013-04-17 03:12:00,61.0,20.8,29.56,SW,225,5.1,-999.0,21,-99.99,,,0.00,Acu-Link.com,2013-04-17 09:12:00,
2013-04-17 03:27:00,61.0,20.8,29.56,WSW,247,5.1,-999.0,21,-99.99,,,0.00,Acu-Link.com,2013-04-17 09:27:00,
2013-04-17 03:42:00,59.9,21.0,29.55,WSW,247,6.7,-999.0,22,-99.99,,,0.00,Acu-Link.com,2013-04-17 09:42:00,
2013-04-17 03:58:00,59.0,21.3,29.55,SW,225,6.3,-999.0,23,-99.99,,,0.00,Acu-Link.com,2013-04-17 09:58:00,
2013-04-17 04:13:00,57.9,20.4,29.55,South,180,4.7,-999.0,23,-99.99,,,0.00,Acu-Link.com,2013-04-17 10:13:00,
2013-04-17 04:28:00,55.8,18.5,29.54,South,180,1.6,-999.0,23,-99.99,,,0.00,Acu-Link.com,2013-04-17 10:28:00,
2013-04-17 04:43:00,54.0,17.0,29.55,West,270,0.0,-999.0,23,-99.99,,,0.00,Acu-Link.com,2013-04-17 10:43:00,
2013-04-17 04:58:00,52.3,16.6,29.55,NNE,22,0.0,-999.0,24,-99.99,,,0.00,Acu-Link.com,2013-04-17 10:58:00,
2013-04-17 05:14:00,50.5,17.8,29.55,ENE,67,2.2,-999.0,27,-99.99,,,0.00,Acu-Link.com,2013-04-17 11:14:00,
2013-04-17 05:29:00,51.8,21.4,29.54,West,270,1.6,-999.0,30,-99.99,,,0.00,Acu-Link.com,2013-04-17 11:29:00,
2013-04-17 05:44:00,51.6,21.2,29.55,South,180,2.2,-999.0,30,-99.99,,,0.00,Acu-Link.com,2013-04-17 11:44:00,
2013-04-17 05:59:00,52.3,21.8,29.54,SW,225,2.7,-999.0,30,-99.99,,,0.00,Acu-Link.com,2013-04-17 11:59:00,
2013-04-17 06:14:00,51.1,19.9,29.54,South,180,1.6,-999.0,29,-99.99,,,0.00,Acu-Link.com,2013-04-17 12:14:00,
2013-04-17 06:30:00,49.3,19.2,29.55,East,90,0.0,-999.0,30,-99.99,,,0.00,Acu-Link.com,2013-04-17 12:30:00,
2013-04-17 06:45:00,48.2,18.2,29.56,ENE,67,0.0,-999.0,30,-99.99,,,0.00,Acu-Link.com,2013-04-17 12:45:00,
2013-04-17 07:00:00,49.6,18.7,29.55,SSE,157,1.1,-999.0,29,-99.99,,,0.00,Acu-Link.com,2013-04-17 13:00:00,
2013-04-17 07:15:00,52.7,18.8,29.56,ESE,112,1.6,-999.0,26,-99.99,,,0.00,Acu-Link.com,2013-04-17 13:15:00,
2013-04-17 07:30:00,55.2,20.0,29.57,NNW,337,1.6,-999.0,25,-99.99,,,0.00,Acu-Link.com,2013-04-17 13:30:00,
2013-04-17 07:46:00,59.4,24.5,29.58,WNW,292,1.6,-999.0,26,-99.99,,,0.00,Acu-Link.com,2013-04-17 13:46:00,
2013-04-17 08:16:00,56.7,28.6,29.59,WSW,247,16.1,-999.0,34,-99.99,,,0.00,Acu-Link.com,2013-04-17 14:16:00,
2013-04-17 08:31:00,56.7,28.6,29.59,West,270,13.4,-999.0,34,-99.99,,,0.00,Acu-Link.com,2013-04-17 14:31:00,
2013-04-17 08:46:00,57.2,29.1,29.59,WSW,247,16.1,-999.0,34,-99.99,,,0.00,Acu-Link.com,2013-04-17 14:46:00,
2013-04-17 09:02:00,56.8,28.8,29.59,West,270,11.4,-999.0,34,-99.99,,,0.00,Acu-Link.com,2013-04-17 15:02:00,
2013-04-17 09:17:00,58.1,29.9,29.58,West,270,22.8,-999.0,34,-99.99,,,0.00,Acu-Link.com,2013-04-17 15:17:00,
2013-04-17 09:32:00,58.8,29.8,29.58,West,270,11.0,-999.0,33,-99.99,,,0.00,Acu-Link.com,2013-04-17 15:32:00,
2013-04-17 09:47:00,59.7,29.8,29.57,WSW,247,8.9,-999.0,32,-99.99,,,0.00,Acu-Link.com,2013-04-17 15:47:00,
2013-04-17 10:03:00,59.2,28.6,29.57,West,270,15.4,-999.0,31,-99.99,,,0.00,Acu-Link.com,2013-04-17 16:03:00,
2013-04-17 10:18:00,58.1,27.6,29.57,West,270,13.0,-999.0,31,-99.99,,,0.00,Acu-Link.com,2013-04-17 16:18:00,
2013-04-17 10:33:00,58.6,27.3,29.56,WSW,247,11.4,-999.0,30,-99.99,,,0.00,Acu-Link.com,2013-04-17 16:33:00,
2013-04-17 10:48:00,61.0,27.7,29.56,WNW,292,10.3,-999.0,28,-99.99,,,0.00,Acu-Link.com,2013-04-17 16:48:00,
2013-04-17 11:03:00,61.5,26.3,29.56,West,270,11.0,-999.0,26,-99.99,,,0.00,Acu-Link.com,2013-04-17 17:03:00,
2013-04-17 11:19:00,62.6,27.2,29.56,West,270,9.8,-999.0,26,-99.99,,,0.00,Acu-Link.com,2013-04-17 17:19:00,
2013-04-17 11:34:00,62.2,26.9,29.56,West,270,7.4,-999.0,26,-99.99,,,0.00,Acu-Link.com,2013-04-17 17:34:00,
2013-04-17 11:49:00,61.9,26.6,29.55,NW,315,9.8,-999.0,26,-99.99,,,0.00,Acu-Link.com,2013-04-17 17:49:00,
2013-04-17 12:04:00,61.2,26.9,29.54,West,270,14.1,-999.0,27,-99.99,,,0.00,Acu-Link.com,2013-04-17 18:04:00,
2013-04-17 12:19:00,59.9,26.7,29.54,West,270,8.3,-999.0,28,-99.99,,,0.00,Acu-Link.com,2013-04-17 18:19:00,
2013-04-17 12:35:00,61.3,27.1,29.53,WNW,292,7.8,-999.0,27,-99.99,,,0.00,Acu-Link.com,2013-04-17 18:35:00,
2013-04-17 12:50:00,62.2,26.0,29.52,West,270,15.0,-999.0,25,-99.99,,,0.00,Acu-Link.com,2013-04-17 18:50:00,
2013-04-17 13:05:00,63.5,27.1,29.51,West,270,11.4,-999.0,25,-99.99,,,0.00,Acu-Link.com,2013-04-17 19:05:00,
2013-04-17 13:20:00,62.2,26.9,29.51,West,270,10.3,-999.0,26,-99.99,,,0.00,Acu-Link.com,2013-04-17 19:20:00,
2013-04-17 13:35:00,64.6,27.0,29.50,West,270,13.0,-999.0,24,-99.99,,,0.00,Acu-Link.com,2013-04-17 19:35:00,
2013-04-17 13:51:00,64.4,27.8,29.50,West,270,17.7,-999.0,25,-99.99,,,0.00,Acu-Link.com,2013-04-17 19:51:00,
2013-04-17 14:06:00,63.3,26.9,29.51,West,270,24.2,-999.0,25,-99.99,,,0.00,Acu-Link.com,2013-04-17 20:06:00,
2013-04-17 14:21:00,63.0,26.6,29.50,West,270,14.5,-999.0,25,-99.99,,,0.00,Acu-Link.com,2013-04-17 20:21:00,
2013-04-17 14:36:00,62.6,26.3,29.51,West,270,22.8,-999.0,25,-99.99,,,0.00,Acu-Link.com,2013-04-17 20:36:00,
2013-04-17 14:52:00,61.3,27.1,29.50,West,270,22.1,-999.0,27,-99.99,,,0.00,Acu-Link.com,2013-04-17 20:52:00,
2013-04-17 15:07:00,61.9,26.6,29.50,WNW,292,23.7,-999.0,26,-99.99,,,0.00,Acu-Link.com,2013-04-17 21:07:00,
2013-04-17 15:22:00,60.4,24.5,29.50,NNW,337,15.0,-999.0,25,-99.99,,,0.05,Acu-Link.com,2013-04-17 21:22:00,
2013-04-17 15:37:00,59.4,22.6,29.49,SW,225,21.3,-999.0,24,-99.99,,,0.14,Acu-Link.com,2013-04-17 21:37:00,
2013-04-17 15:52:00,60.3,23.3,29.48,WNW,292,30.4,-999.0,24,-99.99,,,0.27,Acu-Link.com,2013-04-17 21:52:00,
2013-04-17 16:08:00,58.3,21.7,29.48,SW,225,27.3,-999.0,24,-99.99,,,0.53,Acu-Link.com,2013-04-17 22:08:00,
2013-04-17 16:23:00,59.4,19.4,29.49,WNW,292,17.7,-999.0,21,-99.99,,,1.15,Acu-Link.com,2013-04-17 22:23:00,
2013-04-17 16:38:00,57.9,18.2,29.51,West,270,18.6,-999.0,21,-99.99,,,1.15,Acu-Link.com,2013-04-17 22:38:00,
2013-04-17 16:53:00,55.4,24.5,29.56,SSW,202,12.5,-999.0,30,-99.99,,,1.15,Acu-Link.com,2013-04-17 22:53:00,
2013-04-17 17:08:00,53.1,24.7,29.59,NW,315,9.8,-999.0,33,-99.99,,,1.15,Acu-Link.com,2013-04-17 23:08:00,
2013-04-17 17:24:00,54.1,26.4,29.59,North,0,17.7,-999.0,34,-99.99,,,1.15,Acu-Link.com,2013-04-17 23:24:00,
2013-04-17 17:39:00,52.5,25.0,29.59,NNW,337,17.7,-999.0,34,-99.99,,,1.15,Acu-Link.com,2013-04-17 23:39:00,
2013-04-17 17:54:00,53.2,23.4,29.62,WNW,292,10.3,-999.0,31,-99.99,,,1.15,Acu-Link.com,2013-04-17 23:54:00,
2013-04-17 18:09:00,52.9,23.1,29.64,West,270,11.4,-999.0,31,-99.99,,,1.15,Acu-Link.com,2013-04-18 00:09:00,
2013-04-17 18:24:00,52.2,23.9,29.63,WNW,292,11.0,-999.0,33,-99.99,,,1.15,Acu-Link.com,2013-04-18 00:24:00,
2013-04-17 18:40:00,49.5,22.3,29.64,West,270,10.3,-999.0,34,-99.99,,,1.15,Acu-Link.com,2013-04-18 00:40:00,
2013-04-17 18:55:00,49.3,22.8,29.66,North,0,8.9,-999.0,35,-99.99,,,1.15,Acu-Link.com,2013-04-18 00:55:00,
2013-04-17 19:10:00,47.8,21.5,29.67,West,270,10.3,-999.0,35,-99.99,,,1.15,Acu-Link.com,2013-04-18 01:10:00,
2013-04-17 19:25:00,46.6,19.7,29.68,NW,315,6.3,-999.0,34,-99.99,,,1.15,Acu-Link.com,2013-04-18 01:25:00,
2013-04-17 19:41:00,46.2,19.4,29.69,West,270,4.7,-999.0,34,-99.99,,,1.15,Acu-Link.com,2013-04-18 01:41:00,
2013-04-17 19:56:00,46.2,18.7,29.69,WNW,292,5.1,-999.0,33,-99.99,,,1.15,Acu-Link.com,2013-04-18 01:56:00,
2013-04-17 20:11:00,46.0,17.9,29.69,WNW,292,5.8,-999.0,32,-99.99,,,1.15,Acu-Link.com,2013-04-18 02:11:00,
2013-04-17 20:26:00,45.5,18.1,29.70,West,270,5.8,-999.0,33,-99.99,,,1.15,Acu-Link.com,2013-04-18 02:26:00,
2013-04-17 20:41:00,44.8,18.8,29.72,West,270,8.3,-999.0,35,-99.99,,,1.15,Acu-Link.com,2013-04-18 02:41:00,
2013-04-17 20:57:00,44.4,19.2,29.73,West,270,3.8,-999.0,36,-99.99,,,1.15,Acu-Link.com,2013-04-18 02:57:00,
2013-04-17 21:12:00,44.2,19.0,29.74,West,270,6.3,-999.0,36,-99.99,,,1.15,Acu-Link.com,2013-04-18 03:12:00,
2013-04-17 21:27:00,43.9,18.7,29.75,NW,315,5.8,-999.0,36,-99.99,,,1.15,Acu-Link.com,2013-04-18 03:27:00,
2013-04-17 21:42:00,43.7,18.5,29.77,West,270,5.8,-999.0,36,-99.99,,,1.15,Acu-Link.com,2013-04-18 03:42:00,
2013-04-17 21:57:00,42.6,20.0,29.77,WSW,247,5.8,-999.0,40,-99.99,,,1.15,Acu-Link.com,2013-04-18 03:57:00,
2013-04-17 22:12:00,41.9,19.4,29.78,West,270,6.7,-999.0,40,-99.99,,,1.15,Acu-Link.com,2013-04-18 04:12:00,
2013-04-17 22:28:00,41.5,19.0,29.79,West,270,3.1,-999.0,40,-99.99,,,1.15,Acu-Link.com,2013-04-18 04:28:00,
2013-04-17 22:43:00,40.6,19.4,29.80,ESE,112,2.2,-999.0,42,-99.99,,,1.15,Acu-Link.com,2013-04-18 04:43:00,
2013-04-17 22:58:00,40.5,19.7,29.79,South,180,3.1,-999.0,43,-99.99,,,1.15,Acu-Link.com,2013-04-18 04:58:00,
2013-04-17 23:13:00,39.7,19.1,29.80,NNW,337,0.0,-999.0,43,-99.99,,,1.15,Acu-Link.com,2013-04-18 05:13:00,
2013-04-17 23:28:00,39.6,19.5,29.81,NNE,22,4.3,-999.0,44,-99.99,,,1.15,Acu-Link.com,2013-04-18 05:28:00,
2013-04-17 23:44:00,39.4,19.3,29.81,WSW,247,3.1,-999.0,44,-99.99,,,1.15,Acu-Link.com,2013-04-18 05:44:00,
2013-04-17 23:59:00,39.6,18.9,29.81,West,270,3.8,-999.0,43,-99.99,,,1.15,Acu-Link.com,2013-04-18 05:59:00,